Погода в Доманьяно

Сан-Марино     43°57′00″N   12°28′04″E
темп.,
°C
ветер,
м/с
пор.,
м/с
влажн.,
%
обл.,
%
осадки,
мм/ч
давл.,
гПа
погр.,
м
8 мая, сб
сб823:00+14юз336659 0.0 101154
02:00+13св348597 0.0 1015149
05:00+12ссз129365 0.0 1016105
08:00+13всв2386100 0.1 1018432
11:00+14всв4474100 0.0 1020719
14:00+16всв326198 0.0 1020866
17:00+16всв3260100 0.0 1019778
20:00+12вюв12705 0.0 102048
9 мая, вс
вс923:00+11ююз22785 0.0 102125
02:00+11юз00835 0.0 102118
05:00+10ююз11861 0.0 102019
08:00+14в01745 0.0 1021184
11:00+18всв33621 0.0 1020720
14:00+19всв546124 0.0 1019615
17:00+19в456331 0.0 1018593
20:00+16вюв237973 0.0 101860
10 мая, пн
пн1023:00+14юз118695 0.0 101812
02:00+14ююз228423 0.0 101715
05:00+14юз22845 0.0 101717
08:00+17зсз12740 0.0 1017162
11:00+22юв25500 0.0 1016920
14:00+24вюв364619 0.0 10151247
17:00+25ююз46481 0.0 10141586
20:00+20ююв2265100 0.0 101423
11 мая, вт
вт1123:00+18ююв2257100 0.0 101431
02:00+17юз225784 0.0 101327
05:00+15юз2262100 0.0 101322
08:00+18зюз126098 0.0 1013125
11:00+20св2153100 0.0 1012504
14:00+21ю275699 0.1 10111392
17:00+18ююв51373100 2.2 1008848
20:00+17ю4107251 2.3 1007624
12 мая, ср
ср1223:00+14юз2292100 3.7 100783
02:00+12зсз2392100 6.8 100578
05:00+12юз3485100 0.1 100595
08:00+14зюз4979100 0.1 1006727
11:00+18зюз675694 0.0 10061191
14:00+18з695891 0.1 10061443
17:00+17зсз4766100 0.6 1006295
20:00+15юз117676 1.1 100734